Flag for Norway Weather past 2 weeks in Fetsund, Norway

Now
56 °F

Cool.


Feels Like: 56 °F
Forecast: 51 / 60 °F
Wind: 2 mph from South

Location: Oslo-Blindern

Current Time: Jul 8, 2015 at 5:14:44 AM

Latest Report: Jul 8, 2015 at 4:00 AM


Visibility: N/A

Pressure: 29.35 "Hg

Humidity: 96%

Dew point: 55 °F

Location of FetsundLocation

Historic Weather in Fetsund — Graph

°F

Fetsund temperature yesterday

Maximum temperature yesterday: 74 °F (at 4:00 PM)
Minimum temperature yesterday: 53 °F (at 4:00 AM)
Average temperature yesterday: 63 °F

Past Weeks' High & Low Weather Summary

 TemperatureHumidityPressure
High80 °F (Jul 5, 4:00 PM)98% (Jun 25, 2:00 AM)30.34 "Hg (Jun 25, 2:00 AM)
Low48 °F (Jun 26, 12:00 AM)31% (Jul 2, 4:00 PM)29.38 "Hg (Jul 8, 3:00 AM)
Average63 °F69%29.93 "Hg
* Reported Jun 23 3:00 AM — Jul 8 3:00 AM, Fetsund, Weather by CustomWeather, © 2015

Note: Actual official high and low records may vary slightly from our data, if they occured in-between our weather recording intervals... More about our weather records

Advertising

Fetsund weather history for previous 24 hours

 ConditionsComfort  
Time TempWeatherWind HumidityBarometerVisibility
3:00 AM
Wed, Jul 8
56 °FCool.1 mph96%29.38 "HgN/A
2:00 AM56 °FLight rain. Low clouds.2 mph95%29.41 "Hg9 mi
1:00 AM56 °FCool.5 mph94%29.44 "HgN/A
12:00 AM57 °FCool.5 mph95%29.44 "HgN/A
11:00 PM
Tue, Jul 7
58 °FLight rain. Low clouds.5 mph94%29.47 "Hg40 mi
10:00 PM59 °FCool.6 mph89%29.50 "HgN/A
9:00 PM62 °FCool.5 mph74%29.50 "HgN/A
8:00 PM66 °FOvercast.6 mph62%29.47 "Hg43 mi
7:00 PM68 °FMild.5 mph55%29.50 "HgN/A
6:00 PM72 °FMild.5 mph43%29.50 "HgN/A
5:00 PM72 °FPartly sunny.5 mph44%29.53 "Hg47 mi
4:00 PM74 °FMild.3 mph42%29.54 "HgN/A
3:00 PM71 °FMild.5 mph47%29.56 "HgN/A
2:00 PM70 °FOvercast.1 mph47%29.57 "Hg47 mi
1:00 PM67 °FMild.3 mph47%29.58 "HgN/A
12:00 PM69 °FMild.6 mph45%29.58 "HgN/A
11:00 AM67 °FScattered clouds.5 mph52%29.58 "Hg47 mi
10:00 AM65 °FMild.6 mph53%29.59 "HgN/A
9:00 AM64 °FMild.6 mph53%29.58 "HgN/A
8:00 AM63 °FScattered clouds.7 mph53%29.58 "Hg47 mi
7:00 AM60 °FCool.5 mph60%29.58 "HgN/A
6:00 AM56 °FCool.2 mph69%29.59 "HgN/A
Weather by CustomWeather, © 2015

See weather overviewHow to use our weather pages